Weather in Yumas

Russia / Khanty-Mansi Autonomous Okrug — Yugra     59°31′42″N   66°24′54″E
temp.,
°C
wind,
m/s
gust,
m/s
humid.,
%
clouds,
%
prec.,
mm/h
press.,
hPa
HPBL,
m
4 march, thu
thu423:00−7ssw489597 0.3 996168
02:00−9ssw479644 0.0 996135
05:00−7s479571 0.1 996202
08:00−8s4895100 0.4 994263
11:00−5ssw4694100 0.8 994347
14:00−3ssw459196 0.1 993572
17:00−3ssw359699 0.3 993403
20:00−5s2497100 0.5 99387
5 march, fri
fri523:00−6sw369698 0.6 993185
02:00−8wsw4795100 0.1 993166
05:00−13ssw349465 0.1 99452
08:00−14sse339520 0.0 99343
11:00−8sse469460 0.3 993405
14:00−6s3489100 0.4 993508
17:00−6sse2389100 0.4 995460
20:00−9ese239599 0.0 99540
6 march, sat
sat623:00−8ene2496100 0.6 99699
02:00−9nnw2396100 0.6 99678
05:00−10w2296100 0.8 99729
08:00−10wsw359694 0.2 998184
11:00−8w589295 0.4 999589
14:00−7wsw6991100 0.4 1000751
17:00−8wsw61091100 0.8 1002755
20:00−11wsw51187100 0.1 1003425
7 march, sun
sun723:00−15sw479385 0.1 1004128
02:00−17sw479522 0.0 1004125
05:00−19sw359845 0.0 100587
08:00−19wsw349986 0.0 100666
11:00−14w239393 0.1 1006249
14:00−11nw2287100 0.0 1006445
17:00−12n2293100 0.1 100758
20:00−18nne119914 0.0 100720
8 march, mon
mon823:00−19nw1110040 0.0 100820
02:00−21w1110080 0.0 100820
05:00−21ssw1210086 0.1 100920
08:00−21ssw229967 0.0 101020
11:00−15s249370 0.0 1010259
14:00−12s358795 0.0 1009554
17:00−12sse369198 0.1 1008424
20:00−14sse3795100 0.0 1007210